GFSNW_sfc_wetblb_162.txt.gz
Wetbulb
52.10 52.35 52.46 52.15 51.64 50.54 49.27 47.21 41.61 52.67 53.76 45.72 46.29 43.35 45.32 44.81 46.12 48.71 47.72 48.01 48.28 49.76 50.87 50.00 51.10 51.33 52.86 56.18 56.51 53.05 54.62 51.38 48.67 49.51 53.43 54.28 54.27 53.31 54.52 50.58 51.04 52.14 51.76 51.76
51.87 52.04 52.02 51.87 51.08 50.55 49.04 44.00 44.14 52.70 51.01 39.76 42.78 46.25 45.08 46.46 45.70 46.00 46.37 46.82 48.63 50.44 49.65 48.30 50.44 51.56 52.53 53.98 55.74 54.93 55.43 50.77 47.42 48.32 51.67 53.70 51.73 52.77 54.00 54.42 54.59 52.10 49.10 51.17
51.85 51.97 51.99 51.78 51.46 50.97 49.24 44.24 39.61 45.81 49.04 48.11 42.95 41.96 42.27 43.23 47.78 46.88 47.48 47.37 49.09 48.52 47.49 50.56 49.28 49.63 50.22 52.86 55.74 59.58 58.77 52.79 50.82 47.49 50.00 52.17 50.37 51.20 52.54 52.60 50.24 50.73 51.86 54.16
51.35 51.30 51.78 51.58 51.40 51.11 49.22 45.56 42.49 42.73 40.44 41.96 42.09 42.52 42.31 41.43 42.60 47.83 49.41 46.96 46.75 46.97 45.87 47.48 48.01 50.09 49.74 50.98 53.14 55.48 56.29 51.76 53.62 53.39 53.33 52.52 51.92 51.30 52.10 51.90 52.41 50.35 52.25 53.20
51.09 51.07 51.36 51.18 50.83 50.60 47.74 41.65 41.67 44.89 41.51 41.84 40.53 39.47 41.85 41.15 42.46 43.93 45.18 45.79 46.26 47.07 46.57 47.87 47.55 49.62 50.64 50.85 52.43 53.67 54.68 51.80 53.94 51.73 53.51 53.44 51.21 52.23 52.69 52.52 52.80 53.30 53.65 54.27
50.74 50.82 51.03 51.16 50.56 49.70 47.41 49.53 47.53 43.82 40.37 39.78 38.60 39.22 39.93 40.80 42.45 45.16 46.80 44.90 44.76 46.21 48.35 50.23 51.41 52.60 53.34 53.02 52.22 52.00 52.40 51.88 51.63 48.61 52.30 51.82 49.09 52.47 53.13 53.48 54.36 53.83 51.79 55.85
50.31 50.42 50.53 50.44 50.24 49.48 51.38 48.74 46.78 41.01 36.40 39.07 38.97 38.84 40.17 39.64 41.02 40.97 44.20 45.60 44.26 49.13 50.84 51.83 52.70 51.97 51.92 52.21 52.59 53.88 50.63 52.31 52.56 49.12 51.16 44.71 52.77 55.90 55.17 53.87 54.89 56.26 56.48 57.59
50.40 50.08 50.06 50.40 50.34 50.12 50.63 51.41 45.14 39.81 35.82 38.24 37.77 39.61 39.71 41.27 42.36 41.00 42.34 44.46 47.91 50.98 48.66 47.17 46.83 47.29 47.86 48.72 50.83 51.48 52.88 51.37 48.76 47.38 48.18 51.34 52.52 54.77 54.53 53.52 53.84 56.98 57.00 58.35
50.60 50.35 50.23 50.03 50.46 49.83 50.48 51.50 51.94 44.00 37.30 36.90 40.50 38.42 39.99 38.54 39.86 41.11 43.04 47.66 50.02 48.70 45.97 46.24 42.26 41.23 45.10 45.08 47.50 51.92 52.08 52.69 48.84 48.46 45.47 44.50 52.83 56.88 58.79 58.36 51.89 58.90 58.88 58.84
50.56 50.56 50.41 50.40 50.10 49.67 50.32 50.01 52.10 45.74 38.37 39.54 42.43 39.13 38.89 42.39 40.07 40.19 42.93 43.69 44.80 49.01 44.13 43.33 43.33 43.48 48.20 44.07 45.25 47.13 48.12 48.76 45.29 46.01 46.00 49.94 55.67 57.87 59.39 51.65 53.44 60.13 60.63 61.17
50.24 50.12 50.42 50.35 50.31 49.95 49.68 47.96 51.99 46.68 39.58 42.33 44.18 44.76 42.06 42.79 42.31 37.56 42.77 41.54 44.84 44.33 40.75 43.38 45.40 45.18 47.29 47.15 49.51 49.25 47.91 46.64 45.98 46.97 45.56 44.00 58.65 59.80 55.32 60.13 63.03 64.39 64.15 64.26
50.26 50.12 50.05 49.86 50.17 49.42 50.16 45.56 49.70 51.93 45.63 42.76 47.38 47.52 48.49 46.96 46.12 42.59 42.09 42.12 41.12 43.04 43.22 43.68 45.71 46.41 48.70 47.81 44.35 52.68 48.28 50.61 48.64 50.23 49.57 59.17 58.49 62.34 63.51 64.39 64.87 65.57 65.21 65.09
49.68 49.84 49.32 48.94 49.42 49.59 49.47 47.29 47.83 48.44 42.60 42.70 43.62 43.17 47.97 49.72 48.99 49.77 40.77 43.51 45.42 43.03 45.50 41.82 42.62 44.65 49.68 45.04 46.61 50.59 53.40 56.25 52.46 52.88 54.70 57.06 60.63 63.93 65.29 65.96 65.63 66.26 66.10 66.51
49.55 49.63 48.71 48.67 48.88 48.99 48.62 46.47 49.58 47.70 43.57 37.39 40.61 48.40 46.50 50.19 50.03 49.12 48.39 46.40 47.87 47.97 43.04 39.29 39.05 41.07 51.08 48.88 51.24 52.09 53.14 56.00 54.42 54.62 56.94 59.30 62.20 63.85 65.64 65.79 66.54 66.25 66.70 66.54
49.82 49.19 49.01 48.04 48.15 48.26 49.35 49.07 49.38 49.36 42.67 37.26 40.16 45.83 48.43 49.57 48.88 47.83 48.28 47.54 45.62 43.42 38.92 38.12 38.73 44.98 47.20 50.61 51.40 50.86 55.95 55.10 54.10 52.38 59.21 60.85 60.83 64.84 66.63 65.53 65.07 65.73 65.19 64.86
50.06 49.34 48.90 48.90 48.98 48.58 48.37 42.59 48.96 49.93 48.37 40.17 35.22 46.47 45.79 47.70 47.72 48.78 46.74 47.08 45.35 43.98 41.16 39.92 43.40 44.69 46.03 42.72 45.70 54.52 58.84 60.11 60.50 60.13 62.49 63.90 65.66 65.91 66.60 65.48 65.25 65.36 65.25 63.85
50.49 50.05 49.54 49.06 49.34 48.79 44.33 42.74 47.34 49.43 50.45 37.69 35.67 39.21 45.58 48.44 49.15 48.43 45.74 45.55 43.13 42.13 42.13 41.21 42.05 45.87 47.69 43.81 43.22 54.56 58.01 58.59 60.24 62.32 62.30 61.73 64.01 63.57 65.77 65.65 64.98 62.02 62.48 63.01
51.31 50.91 50.20 49.70 49.64 48.38 45.41 49.19 48.56 49.50 44.24 41.08 35.71 38.03 40.34 46.61 42.33 42.05 45.43 41.70 44.36 44.11 42.43 44.22 46.11 48.02 46.30 42.14 50.18 53.88 56.55 58.75 59.57 61.68 62.56 63.77 64.65 64.44 63.76 62.99 61.78 60.98 60.98 61.08
51.15 50.87 50.19 49.22 46.90 44.02 45.63 49.16 49.82 48.53 44.49 37.42 36.96 35.53 36.21 47.30 44.93 46.82 45.70 45.20 38.86 44.49 40.44 43.77 46.90 45.43 41.36 46.35 50.58 54.02 56.04 57.43 59.27 61.47 61.58 61.64 60.43 60.04 60.59 60.86 60.86 59.96 60.11 60.87
50.44 48.88 45.74 41.97 46.53 49.04 49.31 45.54 41.72 41.15 40.62 38.17 34.96 40.87 37.94 41.57 43.62 41.90 42.11 44.42 41.10 39.18 43.13 48.10 43.27 44.89 50.28 51.54 53.66 53.84 54.44 58.23 59.76 57.92 58.14 58.69 58.53 59.17 59.63 59.88 60.01 59.60 59.47 59.69
47.40 44.53 43.29 48.74 49.57 46.63 43.93 39.50 38.67 39.09 37.09 37.68 38.39 37.57 36.86 45.75 41.06 41.04 45.09 39.39 42.13 37.71 41.36 42.03 41.36 43.24 48.00 51.46 51.55 55.23 57.69 59.08 59.92 60.30 60.02 60.31 59.96 59.31 59.34 59.76 60.50 60.97 61.53 61.26
47.25 46.90 48.35 47.79 44.33 42.16 38.36 36.65 37.92 36.47 35.46 39.23 40.11 42.25 41.12 45.59 48.19 42.23 42.30 38.51 38.65 35.65 43.91 39.67 35.51 42.57 47.29 51.13 52.53 55.05 57.55 59.18 59.57 60.78 59.88 60.81 61.02 61.23 61.05 61.05 61.29 61.86 62.44 62.84
48.46 45.24 41.72 39.96 39.78 33.34 32.66 32.84 33.72 34.22 39.41 41.02 44.44 42.50 46.13 47.22 46.38 43.83 41.12 34.96 35.72 43.65 38.65 35.54 38.64 45.74 51.35 52.68 54.75 55.27 56.45 56.83 57.36 57.67 59.09 59.46 59.61 60.26 60.31 59.92 60.92 61.21 61.06 61.89
48.27 44.18 37.64 40.35 37.26 34.83 35.21 36.27 37.85 42.81 42.99 44.43 45.24 43.89 44.41 46.01 42.18 42.68 36.96 40.32 43.25 34.70 33.54 34.46 43.82 47.85 51.42 53.56 55.42 55.20 55.16 55.13 55.46 55.87 56.62 56.85 57.22 57.39 58.59 59.60 60.15 59.86 59.78 60.50
46.76 45.65 38.70 40.15 44.69 45.36 46.25 48.01 46.29 47.24 48.16 45.86 44.85 46.09 46.32 44.79 43.54 44.11 42.82 38.79 34.41 34.58 36.19 43.15 46.86 49.84 52.37 52.60 53.71 54.38 55.95 56.12 55.70 55.75 55.09 55.14 56.08 56.12 56.77 58.53 59.59 59.72 59.70 59.85
46.86 46.19 41.07 43.77 43.99 44.63 45.80 46.36 46.31 50.28 46.52 47.67 46.81 46.42 44.77 43.12 42.70 39.39 37.41 36.33 33.85 38.55 44.15 48.63 50.89 51.95 52.60 55.04 56.27 56.90 56.01 55.56 54.74 55.17 55.57 56.35 56.77 57.20 57.59 58.64 58.78 58.94 59.03 59.40
45.36 43.75 46.21 46.67 44.53 44.34 45.33 47.46 49.23 52.13 49.77 46.29 47.70 42.41 41.83 44.64 39.44 37.12 40.81 39.57 42.31 45.16 47.60 50.76 52.87 52.71 53.06 55.70 56.85 57.36 57.17 55.35 54.96 55.19 56.10 56.86 58.41 59.05 58.47 57.38 57.83 58.64 58.96 59.13

GFSNW_sfc_wetblb_165.txt.gz
Wetbulb
52.46 52.48 52.59 52.43 52.05 50.90 49.73 49.26 44.02 54.12 54.98 46.19 47.51 44.69 46.74 47.65 48.80 51.03 49.55 50.49 50.40 51.02 52.97 52.93 52.57 52.50 54.28 56.95 56.65 54.44 56.78 53.07 49.73 51.10 54.67 55.40 54.59 54.01 55.01 52.09 52.63 53.73 52.97 52.72
52.40 52.27 52.28 51.97 51.60 50.90 49.44 46.34 47.05 52.96 51.38 40.17 42.68 46.88 46.41 48.22 47.98 48.07 48.01 48.09 50.15 51.89 51.39 51.26 53.08 53.73 56.85 56.28 56.15 55.20 57.18 52.77 48.95 49.84 52.59 54.44 52.12 53.86 54.63 55.54 55.89 53.60 50.94 52.93
52.27 52.34 52.25 51.80 51.75 51.63 49.82 46.31 42.49 47.57 48.96 48.07 44.65 44.94 46.45 45.77 49.45 48.52 49.42 48.73 50.03 49.82 49.63 52.94 52.32 52.76 55.17 54.70 56.07 61.56 59.87 54.42 51.71 48.26 51.17 52.95 51.05 51.77 53.45 53.68 51.92 52.26 52.49 54.92
51.69 51.73 52.06 51.75 51.86 51.64 49.56 47.02 44.12 46.10 42.21 45.10 45.47 45.41 44.72 43.42 44.37 48.61 49.58 48.81 48.01 48.02 47.69 49.65 50.11 52.98 53.79 53.38 59.22 56.58 56.79 52.89 53.67 52.95 53.34 53.49 52.66 52.05 52.20 51.65 52.97 51.57 53.78 54.20
50.94 51.61 51.88 51.83 51.57 51.35 47.76 43.32 42.19 44.83 44.37 44.90 43.28 42.41 41.87 42.38 44.11 45.87 46.38 47.05 49.44 49.30 47.92 49.67 49.24 51.86 53.11 52.39 54.50 54.34 56.59 53.43 54.43 52.15 53.21 53.18 52.24 53.13 53.14 52.85 52.88 53.27 53.86 54.21
50.96 50.71 51.00 51.48 51.26 49.59 47.65 49.48 47.78 44.53 41.92 42.75 42.03 42.18 42.53 42.38 45.58 46.15 48.02 47.33 47.82 47.82 49.55 51.77 52.50 53.30 54.30 55.00 54.66 53.73 54.39 53.76 53.31 50.28 53.36 53.35 50.27 53.47 53.49 53.91 54.55 54.11 52.18 56.02
51.19 51.02 50.77 51.00 51.04 49.62 50.74 49.17 48.04 41.92 38.10 41.12 41.10 42.08 42.06 42.17 43.70 42.90 45.92 46.94 46.20 50.92 53.39 52.98 53.48 52.83 53.51 53.98 54.88 56.33 54.61 55.30 53.78 50.82 53.06 46.48 54.07 57.58 56.62 54.99 55.81 56.93 56.89 57.83
51.27 51.31 51.10 50.98 50.93 50.94 49.57 52.49 47.64 42.98 37.89 40.44 41.20 41.56 41.47 43.57 44.61 43.08 43.21 46.08 49.44 51.78 49.89 47.38 46.93 47.84 49.22 50.58 52.98 54.44 55.78 54.29 51.26 49.20 49.32 52.45 53.76 55.07 55.19 54.62 55.01 58.07 57.63 58.62
51.40 51.34 51.14 50.93 51.14 50.39 49.93 51.38 52.78 47.53 39.01 39.13 42.36 40.66 42.08 40.37 42.04 43.02 44.95 48.05 50.72 50.54 47.32 46.10 42.03 41.97 46.03 45.99 48.68 53.35 53.57 55.23 51.64 51.16 47.97 46.75 54.16 57.05 58.47 58.27 52.45 58.47 58.77 58.81
51.46 51.40 50.80 50.79 50.91 50.25 49.62 48.42 52.75 47.55 40.11 43.68 43.98 40.51 39.64 44.29 43.01 41.80 44.19 45.82 46.10 49.66 45.21 42.67 42.40 42.84 48.81 44.82 45.54 47.67 48.42 49.85 48.06 49.17 48.72 51.60 57.10 58.30 59.43 52.39 54.42 60.12 60.20 60.72
51.11 50.49 50.53 50.18 50.86 50.68 50.27 48.42 52.23 48.25 42.66 44.48 45.65 45.82 42.75 42.64 42.68 38.88 43.84 44.21 44.99 44.29 42.40 43.17 44.16 44.76 47.32 47.52 50.27 50.44 48.60 47.61 47.30 49.18 47.51 46.26 57.60 57.28 54.77 61.00 62.73 62.05 62.39 63.35
50.57 50.12 50.38 49.94 49.74 49.94 49.97 47.13 51.31 53.05 45.36 44.39 48.37 48.84 49.53 47.90 47.20 43.06 44.99 42.78 44.03 46.16 44.04 45.54 47.39 45.70 48.41 48.83 45.04 53.27 49.49 52.42 50.49 50.82 51.01 58.13 59.46 59.59 63.56 64.03 66.35 66.14 67.05 67.30
50.64 50.13 50.13 49.10 49.40 49.81 50.20 48.58 51.92 49.37 45.11 44.59 45.50 44.94 49.20 50.73 49.78 50.54 42.78 44.95 46.73 45.14 48.30 43.01 42.91 44.63 48.81 45.86 48.48 50.75 53.43 56.32 53.87 54.04 56.67 56.83 58.08 60.05 61.04 64.72 66.83 67.23 67.98 67.97
50.62 50.09 50.00 49.05 49.12 49.19 49.80 49.53 51.29 50.14 43.99 38.95 42.70 49.27 47.35 50.94 50.94 50.23 49.60 48.13 48.53 48.53 50.07 44.87 40.24 41.92 49.55 47.26 47.91 50.59 54.27 56.36 54.74 54.81 56.65 57.92 58.07 58.94 60.19 62.12 66.59 67.68 68.27 67.81
51.06 50.51 49.49 49.57 48.67 48.58 49.39 49.52 50.60 51.32 44.34 38.73 41.48 46.73 48.83 50.10 50.52 49.14 49.78 48.50 46.77 44.58 43.63 40.61 40.21 45.90 46.27 48.06 47.52 49.45 54.99 54.96 51.68 52.48 58.45 58.43 59.89 60.95 61.22 63.01 65.90 67.66 67.33 67.54
51.20 51.55 50.25 49.34 49.24 48.78 48.11 41.76 48.93 50.04 48.27 41.79 37.25 46.74 46.77 48.80 49.71 48.71 48.09 48.40 47.31 46.31 44.28 43.40 44.85 48.16 46.20 43.46 44.73 52.51 55.41 56.82 56.22 56.94 61.25 63.46 64.73 65.19 62.88 64.40 67.32 68.06 68.12 68.53
51.35 51.46 51.11 50.08 49.55 49.56 44.67 44.11 48.25 50.88 50.76 41.06 37.00 40.73 48.88 48.80 48.56 47.41 46.54 47.39 44.89 43.59 43.22 42.08 43.05 43.88 47.79 45.83 43.66 51.12 53.41 56.30 56.07 58.73 60.82 61.05 64.31 64.14 67.14 67.81 67.98 65.77 68.01 67.15
51.73 51.47 51.40 50.58 49.94 49.12 46.49 49.77 48.64 50.57 46.99 43.62 35.69 38.72 44.67 49.61 43.86 42.66 47.80 43.48 44.45 43.63 41.44 43.59 43.31 46.02 46.16 43.33 48.83 51.73 53.68 54.89 55.24 58.88 61.95 62.24 64.38 66.51 67.28 67.97 67.09 65.09 64.31 64.72
51.39 51.46 51.07 50.89 47.77 44.14 46.41 50.66 50.83 49.08 45.52 38.60 38.14 36.25 36.57 44.91 44.61 46.38 44.83 43.77 39.08 46.91 41.25 43.69 46.09 44.33 41.52 47.06 49.90 52.16 54.32 55.35 56.88 58.68 60.89 63.33 63.33 65.80 66.57 65.45 64.08 63.67 63.51 63.72
50.56 49.11 45.88 43.26 46.73 50.15 49.35 45.36 42.47 42.02 41.41 39.14 36.39 42.05 38.56 44.20 43.45 42.67 45.12 45.27 42.46 37.88 42.10 46.29 42.20 43.45 49.80 51.37 52.72 54.08 55.11 57.47 57.58 56.42 57.18 62.42 63.33 65.17 65.19 63.57 64.05 63.27 63.28 63.57
49.17 44.85 43.52 48.19 49.84 47.20 43.74 39.45 37.61 36.92 35.45 37.59 38.02 38.50 37.90 45.70 38.15 41.61 45.55 37.89 41.01 38.29 43.22 43.16 43.39 43.69 48.66 52.48 53.83 55.68 57.32 56.91 57.75 57.98 56.60 63.61 63.95 63.21 62.85 62.79 62.99 62.90 62.81 62.38
48.72 47.92 49.01 48.32 44.72 41.75 37.37 35.69 37.43 36.75 36.71 40.59 39.51 40.18 39.32 42.06 47.03 43.03 42.03 39.48 39.60 36.02 45.64 42.00 39.08 47.14 52.10 53.18 54.06 55.97 54.75 56.57 57.17 58.34 58.48 61.32 61.68 62.61 62.51 62.24 63.00 63.30 63.79 64.00
49.55 46.80 44.60 42.69 41.54 34.26 32.31 31.95 32.85 32.67 36.18 39.86 41.99 41.27 44.21 45.63 46.74 42.32 41.20 36.35 36.80 42.38 38.45 37.35 41.53 46.13 47.22 52.30 53.14 54.20 56.12 57.48 57.69 58.86 60.22 60.74 61.02 62.38 62.38 62.71 63.46 63.66 63.38 63.87
48.08 46.35 40.96 43.12 40.05 39.10 37.15 38.45 40.91 42.66 40.77 40.72 42.47 42.00 43.18 46.01 40.59 38.55 33.94 36.61 39.28 33.93 34.31 34.79 40.53 46.49 51.11 53.22 54.91 55.28 55.15 55.53 55.74 56.59 58.87 60.04 60.87 61.03 61.72 61.91 62.09 61.66 61.20 61.74
48.10 48.29 40.03 43.55 45.64 46.40 46.53 47.90 47.84 48.53 50.17 48.61 46.01 45.24 44.11 41.79 38.63 40.69 39.91 36.94 34.64 34.64 34.09 42.47 48.44 49.23 51.48 52.47 53.28 53.48 54.23 54.33 54.24 55.42 55.79 56.68 57.84 58.83 59.61 60.71 61.39 61.34 61.28 61.57
48.22 47.65 42.46 45.20 44.00 44.36 46.48 48.58 48.96 52.65 51.98 51.86 48.89 46.48 43.10 41.26 40.84 38.23 36.46 35.44 33.94 40.32 45.57 49.69 51.36 48.83 50.44 51.76 52.81 53.41 53.85 55.05 54.81 55.51 56.34 56.90 57.53 57.75 58.39 59.17 59.41 59.99 60.84 60.91
49.53 49.50 50.74 46.55 45.58 45.63 47.84 49.87 51.04 54.53 52.11 47.21 47.55 42.85 40.40 44.42 38.47 36.82 41.37 40.86 43.39 46.80 50.08 53.16 53.92 52.84 52.16 52.64 53.23 54.48 54.38 54.66 54.82 55.84 57.54 58.22 58.73 58.89 58.60 58.17 59.40 59.34 60.60 61.21

GFSNW_sfc_wetblb_168.txt.gz
Wetbulb
52.99 52.95 52.76 52.43 51.68 50.86 49.63 47.28 41.76 54.33 55.66 45.51 46.17 42.88 45.23 47.05 47.85 50.24 50.01 50.82 50.27 49.89 51.10 51.65 52.51 51.98 53.56 56.88 56.02 53.06 55.61 53.30 50.58 51.24 54.22 54.93 53.55 52.64 53.93 52.34 52.21 53.61 53.58 52.41
52.76 52.97 52.55 52.14 51.47 51.23 48.49 44.02 45.68 52.83 52.42 40.61 41.84 45.07 45.28 46.85 46.99 47.64 48.15 48.31 49.79 50.82 49.57 49.09 52.79 54.36 56.80 57.00 55.93 54.68 56.10 52.80 49.24 49.57 52.27 53.78 51.44 52.65 54.31 54.84 55.47 53.53 50.30 52.32
52.43 52.32 52.35 52.05 51.71 51.72 49.07 44.14 41.58 47.95 48.34 47.13 43.38 42.55 43.60 44.32 48.36 47.67 49.30 49.01 49.96 48.78 48.20 50.85 50.32 52.52 55.89 56.99 56.53 62.30 59.06 53.55 52.59 48.49 50.36 52.65 50.98 51.11 52.52 52.78 51.70 52.34 52.72 55.16
52.39 52.31 52.01 52.03 52.14 51.77 49.01 44.46 42.12 44.81 39.36 42.68 44.87 46.41 44.20 44.08 45.09 48.84 49.51 48.20 48.03 47.64 46.02 47.93 49.01 52.33 54.54 55.98 61.72 57.31 55.75 53.29 54.94 53.30 53.39 52.98 52.03 51.21 51.32 51.57 53.31 50.75 53.51 54.79
52.43 52.32 52.24 51.87 51.61 51.26 46.93 40.62 40.60 44.12 43.52 44.33 43.04 43.20 43.21 42.27 44.43 46.20 46.33 46.47 48.09 49.54 47.01 48.26 48.35 50.91 53.10 53.58 55.87 54.49 55.60 53.52 54.42 52.41 53.72 52.95 51.47 52.81 52.31 51.96 51.94 52.86 53.39 54.29
52.18 52.10 52.24 51.99 51.20 50.42 45.68 49.73 49.24 44.74 41.70 42.44 41.33 41.87 42.85 42.93 44.44 46.08 48.23 47.57 47.73 48.22 49.64 50.93 50.94 51.68 52.18 52.63 52.47 53.61 53.97 53.82 54.00 50.47 53.31 52.29 49.15 52.11 52.83 53.41 54.35 53.21 51.55 56.39
52.07 51.89 51.68 51.77 51.35 49.90 47.67 47.68 47.76 41.81 37.49 40.00 40.04 41.70 43.73 42.73 43.86 43.12 45.70 46.76 46.19 49.94 53.24 51.54 51.86 52.07 51.91 52.51 53.48 55.18 54.95 55.92 54.26 50.35 53.12 45.63 53.19 56.19 55.26 54.41 55.50 57.17 57.04 58.56
51.74 52.13 51.70 51.55 51.50 51.12 48.65 49.29 48.13 43.09 36.89 40.49 41.28 40.87 42.08 43.71 44.78 43.48 44.03 45.81 48.13 49.82 48.14 44.95 45.46 46.47 48.26 50.35 52.56 53.96 55.19 54.08 50.38 49.48 49.49 52.25 53.50 55.93 54.87 54.81 55.35 58.31 57.64 59.86
52.20 51.87 51.66 51.51 51.16 50.83 50.07 48.40 53.69 46.14 39.76 39.03 42.11 41.38 42.25 40.61 40.95 42.51 44.69 49.13 49.96 47.93 44.96 43.89 40.51 41.21 45.63 45.85 48.65 53.76 54.09 57.93 53.36 51.04 47.63 45.81 55.10 57.82 58.24 57.88 53.00 60.87 59.98 61.14
51.74 51.80 51.12 51.01 50.30 50.48 49.86 48.74 52.49 47.87 40.21 43.16 43.79 40.61 39.74 43.61 43.17 40.74 44.09 45.41 46.56 47.71 42.74 40.40 40.19 41.94 48.05 44.72 45.58 47.85 49.19 52.17 49.46 50.27 49.33 51.51 57.26 58.56 59.44 52.31 54.84 59.90 59.76 61.83
51.51 51.13 50.90 51.12 50.98 50.69 49.97 48.34 50.23 48.29 41.73 43.21 45.53 45.51 42.94 42.49 43.47 39.76 42.97 43.41 44.50 44.42 40.41 40.18 41.05 41.76 44.93 45.86 49.69 49.83 48.88 48.01 47.40 50.28 48.38 47.02 58.59 57.92 55.44 62.82 65.88 63.10 63.40 63.51
51.29 51.36 50.75 50.71 49.99 50.09 49.38 45.51 50.12 53.93 45.85 43.55 48.15 48.69 49.40 48.20 47.05 44.33 44.72 42.35 43.19 44.12 42.99 42.51 43.69 43.66 45.72 47.28 43.26 52.60 48.02 52.15 50.01 51.69 50.96 61.54 59.72 61.36 63.10 63.57 64.15 66.01 68.78 67.25
50.97 51.68 51.07 50.65 49.81 50.01 50.05 47.55 52.49 50.26 44.96 44.23 44.90 44.87 49.19 50.38 49.49 49.75 41.89 44.74 46.33 44.93 47.78 45.68 42.96 42.07 47.65 43.86 47.30 49.04 53.84 56.95 53.09 52.73 56.52 57.87 59.91 60.61 61.77 62.51 63.01 66.48 67.19 67.39
51.62 51.61 51.66 50.49 50.05 49.58 49.52 48.33 51.74 50.20 45.98 39.15 42.23 48.88 47.55 50.95 50.58 49.37 48.54 47.27 48.30 47.82 47.05 42.81 42.23 39.62 48.48 43.86 44.05 45.25 50.45 52.29 54.78 55.29 58.43 57.85 60.35 59.87 61.17 62.01 62.93 62.51 66.28 67.07
52.08 51.58 51.59 51.28 49.88 49.81 49.25 49.25 50.34 51.43 45.17 39.00 41.13 46.68 48.37 49.88 50.10 48.95 48.97 47.80 46.31 44.88 42.49 42.26 40.91 44.97 44.80 46.05 45.48 45.19 51.91 52.14 50.69 52.34 56.55 58.23 61.10 63.26 62.13 61.62 61.54 62.42 65.13 67.22
51.79 51.79 51.34 51.63 50.31 49.29 47.51 44.05 49.68 50.67 48.94 41.45 37.25 46.78 46.38 49.21 49.64 47.87 47.99 47.69 46.76 45.50 43.13 42.46 44.79 48.33 44.46 39.95 41.48 48.76 51.57 52.66 53.24 54.53 56.92 57.85 60.44 63.73 65.51 65.24 65.86 63.10 65.93 68.35
51.85 51.94 51.55 51.53 51.26 48.78 44.03 43.99 48.42 50.93 49.23 41.19 37.91 39.40 47.70 49.32 48.67 48.67 47.63 48.02 46.26 45.80 43.91 42.90 43.39 44.33 45.80 42.64 39.91 46.52 49.43 50.56 53.67 55.64 56.77 56.94 60.03 60.15 63.97 66.32 67.72 65.04 67.92 70.06
51.73 51.60 51.63 51.43 51.13 49.18 45.16 48.48 50.35 49.95 47.37 44.01 36.26 38.08 43.01 49.45 46.13 44.92 49.26 45.69 45.39 45.57 44.10 44.64 42.55 44.55 44.44 39.07 44.65 47.26 49.92 51.52 52.73 54.14 57.64 59.16 60.99 62.48 63.88 64.00 67.15 67.00 67.13 67.18
51.31 51.41 51.38 50.29 47.56 45.43 47.17 50.60 50.38 50.63 45.72 37.88 38.49 37.16 36.82 48.88 45.41 47.32 46.46 46.66 40.89 45.70 41.28 42.05 43.19 40.43 37.76 42.75 45.00 47.09 50.27 51.46 53.20 55.43 56.93 58.12 58.57 61.21 64.34 64.01 66.53 66.10 65.83 65.86
50.56 50.06 45.15 42.66 47.84 50.80 49.75 45.59 41.42 40.88 41.65 40.04 35.96 41.48 38.31 43.82 44.25 44.17 43.82 44.00 40.42 37.63 41.05 45.09 41.44 40.97 45.24 47.10 47.94 50.72 53.18 54.67 54.81 53.49 53.82 56.06 57.20 60.01 60.13 60.86 66.42 66.29 65.31 65.40
49.46 45.88 43.76 48.12 50.74 47.23 43.39 38.42 36.20 36.36 34.68 37.24 38.00 39.12 37.07 44.32 39.49 40.42 44.19 40.63 42.31 36.77 41.68 39.80 40.16 39.49 45.39 49.39 50.10 52.34 54.10 54.89 55.09 56.59 57.08 57.59 58.63 60.13 60.45 60.34 65.05 65.11 65.54 64.71
48.09 48.12 49.35 48.77 45.07 41.62 37.14 35.16 36.42 34.33 34.57 39.70 37.39 38.16 39.23 41.87 46.16 41.21 41.27 39.39 40.12 34.81 44.41 40.10 39.44 46.21 51.80 52.48 52.01 52.98 54.22 54.74 55.22 57.36 56.71 59.35 60.62 60.34 60.36 62.33 64.82 62.84 64.35 65.23
50.79 47.14 44.71 43.21 41.99 35.25 32.20 32.20 32.56 32.02 34.32 36.99 39.44 39.70 41.17 40.70 44.58 40.73 39.49 35.90 36.06 40.47 37.93 36.45 41.78 48.56 50.32 52.16 53.42 54.72 56.42 56.64 57.49 57.48 58.96 60.56 62.28 62.02 62.70 62.10 61.47 63.76 63.55 64.50
47.16 45.20 40.62 42.49 40.76 40.97 39.44 39.08 42.18 45.69 41.82 39.78 41.21 39.63 40.86 44.78 40.13 38.82 33.29 37.12 35.81 33.83 32.93 32.73 39.98 45.04 48.33 52.57 55.63 56.01 55.17 56.54 57.20 58.81 61.03 59.35 59.78 60.05 59.98 61.97 62.75 61.40 61.95 63.69
47.57 46.91 38.53 41.97 46.58 47.88 47.98 51.05 49.76 50.85 50.92 44.76 41.46 42.40 41.46 38.98 35.92 36.58 36.70 34.66 33.83 33.47 33.64 37.03 45.70 48.04 48.85 50.20 53.02 54.50 54.58 54.82 55.26 56.93 56.80 57.88 58.13 58.69 59.39 59.50 60.02 62.42 63.17 62.91
48.64 47.05 43.23 48.65 47.31 46.97 49.36 51.13 50.55 54.09 51.97 52.56 49.94 44.72 41.51 40.59 40.09 37.36 35.23 34.66 32.75 36.43 44.26 46.33 48.35 47.11 48.27 49.62 52.20 53.08 54.28 55.06 55.50 56.63 56.26 57.29 57.17 56.61 57.12 58.84 59.22 60.18 60.88 61.61
50.92 47.37 48.72 52.27 50.64 48.43 50.86 52.76 52.69 55.37 50.91 46.72 46.91 42.05 41.01 44.63 40.04 37.45 43.14 41.53 44.30 48.06 49.49 49.23 50.62 49.57 49.77 50.01 50.43 51.66 52.99 53.38 54.01 55.54 55.75 56.47 56.99 57.42 57.20 56.72 58.31 59.60 60.76 61.98

GFSNW_sfc_wetblb_171.txt.gz
Wetbulb
52.87 52.56 52.25 52.13 51.52 50.88 48.16 43.80 36.90 49.56 50.80 40.92 43.31 39.49 42.42 44.54 43.92 45.93 44.62 45.26 44.59 44.36 46.89 46.32 46.42 47.76 49.38 52.49 52.79 49.39 51.49 45.86 44.60 47.57 50.20 51.42 48.32 45.64 45.03 41.85 42.55 44.84 44.81 46.67
52.75 52.47 52.18 51.65 51.14 51.11 46.23 39.94 40.81 48.87 48.69 36.51 38.90 42.57 42.66 43.83 43.22 43.58 43.66 43.61 46.10 47.06 45.35 43.10 48.08 50.10 53.92 53.93 52.81 50.23 51.54 47.99 42.90 44.31 47.85 48.98 47.45 47.69 46.30 45.06 45.02 44.55 42.61 46.41
52.79 52.72 52.52 51.83 51.38 51.43 46.93 40.93 35.72 43.21 45.55 44.47 40.20 39.71 40.32 40.01 45.12 44.05 45.31 44.35 46.13 45.67 44.37 45.64 44.99 46.54 50.81 52.79 53.40 60.51 56.96 47.22 46.12 43.29 45.30 47.41 45.79 47.73 48.04 44.78 43.78 43.92 46.63 48.85
52.79 52.66 52.62 52.29 51.92 51.55 47.02 41.44 37.94 42.10 36.75 37.21 39.09 40.16 40.47 40.90 41.11 46.37 47.15 44.17 45.22 44.55 40.98 43.54 43.84 47.36 48.59 51.85 55.17 52.41 52.74 46.53 47.55 49.37 50.50 50.67 48.71 48.37 48.39 45.74 44.99 44.24 46.83 49.20
52.47 52.58 52.27 52.12 51.78 51.27 43.99 39.06 39.43 41.15 38.90 41.07 38.85 39.21 38.81 40.24 41.94 42.92 42.88 42.03 45.81 46.09 42.35 43.46 41.42 43.30 44.08 45.96 48.34 48.93 50.50 46.24 48.22 47.37 50.66 50.43 49.18 50.39 49.24 48.58 48.25 46.56 48.15 48.00
52.45 52.47 52.39 52.17 51.50 50.35 42.93 44.71 46.01 41.95 38.71 38.26 37.37 36.60 38.60 39.83 41.71 43.44 44.64 44.33 42.78 44.69 43.14 45.80 46.00 46.43 46.19 46.52 45.30 45.46 47.17 47.88 45.84 41.60 48.81 49.20 46.18 49.62 49.95 49.33 50.01 49.02 45.38 48.43
52.66 52.93 52.68 52.08 51.52 50.45 47.54 44.97 45.03 39.33 33.16 36.48 36.98 37.67 39.87 39.24 41.22 39.94 43.14 44.65 42.38 45.47 47.58 46.82 46.78 46.70 46.75 48.39 47.54 48.07 45.27 45.52 47.56 42.82 45.70 40.48 47.96 53.14 52.82 51.04 52.72 51.35 50.66 52.61
52.25 52.25 52.06 52.00 51.65 51.36 48.07 47.03 45.34 40.86 33.47 36.24 37.95 38.59 38.48 40.92 41.71 41.33 42.30 44.65 46.29 47.68 44.08 39.94 39.96 41.39 42.67 46.01 48.49 47.74 48.47 46.76 44.29 42.09 42.08 46.84 50.39 53.27 51.40 49.28 49.74 53.75 52.92 54.37
52.12 51.79 51.84 51.71 51.48 50.70 49.72 47.92 49.27 44.39 37.15 34.89 39.38 37.55 39.69 37.32 37.92 40.21 42.80 45.94 47.46 47.20 39.97 38.20 35.25 35.42 41.56 42.04 45.42 48.52 47.51 48.06 46.54 43.51 40.43 40.28 48.75 55.87 56.85 55.08 46.84 57.08 56.33 56.04
52.06 51.98 51.65 51.27 51.60 50.68 49.19 47.04 49.48 46.00 38.47 39.91 40.12 37.48 37.49 41.12 39.76 37.60 40.98 41.55 42.61 46.03 39.17 35.43 35.08 36.17 43.04 39.27 41.20 41.72 42.98 44.33 42.36 43.95 42.21 46.71 54.09 56.21 57.34 46.48 49.27 61.43 58.54 56.70
52.23 51.62 51.81 51.25 51.04 50.61 49.22 46.59 50.39 46.12 40.40 41.08 42.84 42.77 40.27 40.79 40.46 36.22 39.98 39.59 41.69 41.21 37.75 37.20 36.28 36.72 39.65 39.59 42.20 42.76 43.56 41.87 41.73 44.25 42.40 41.11 57.36 56.88 52.36 53.43 57.55 62.26 62.97 62.17
52.60 52.37 51.83 51.72 50.89 50.07 49.54 44.20 49.07 51.30 44.23 41.62 46.62 46.45 47.26 45.69 44.99 41.54 41.48 39.49 40.75 41.02 39.55 39.56 39.66 39.10 41.90 41.60 37.29 45.46 40.94 45.09 44.04 46.57 47.22 53.60 54.77 53.76 55.82 56.74 57.15 59.28 61.69 63.13
52.35 52.45 52.02 52.06 51.32 50.59 49.05 46.36 49.59 49.33 44.13 42.12 42.28 41.83 47.07 48.69 47.87 47.98 38.86 41.38 43.72 43.20 44.62 40.42 40.60 37.24 41.54 39.76 42.16 42.04 45.22 47.59 45.83 48.24 51.12 53.09 53.66 55.99 56.45 56.26 56.83 58.25 60.23 62.84
52.30 52.31 52.37 51.83 51.84 51.03 49.60 45.70 49.84 48.63 44.85 37.12 39.06 47.83 45.69 49.66 49.10 48.02 46.57 44.15 44.87 44.53 43.61 40.90 39.34 37.37 42.65 41.65 40.92 40.16 43.63 45.24 47.67 49.67 51.71 54.10 55.68 55.74 57.85 60.66 58.86 58.13 58.63 61.39
51.90 51.86 52.20 51.90 51.78 51.34 49.26 47.52 48.53 50.33 44.27 36.57 38.54 44.26 46.34 47.51 47.35 47.41 47.22 45.01 42.56 41.62 39.51 39.05 37.56 41.13 40.90 41.87 41.33 39.24 44.66 45.35 43.55 43.63 48.64 49.52 50.89 54.24 58.72 60.90 61.47 62.42 61.28 58.78
51.75 51.68 51.96 51.98 51.58 51.20 46.29 42.50 48.66 50.00 48.96 40.95 35.37 44.43 43.60 46.18 47.82 46.75 45.21 45.45 44.02 43.22 40.83 39.48 40.99 43.04 40.27 37.13 36.13 42.88 46.32 48.74 47.54 45.33 50.00 51.40 52.70 53.96 60.44 59.43 60.98 62.31 61.95 61.26
51.38 51.51 51.56 51.77 51.57 49.41 42.70 42.75 47.64 49.68 48.85 40.58 36.20 37.42 46.08 48.20 46.51 46.03 45.53 45.71 44.14 43.37 41.64 40.25 40.58 41.24 42.15 38.78 35.72 42.30 45.40 46.54 47.61 49.07 49.14 48.19 51.42 52.01 58.54 59.07 61.69 62.66 62.69 66.45
51.27 51.38 51.29 51.50 51.64 50.01 45.37 48.08 49.99 49.05 45.60 43.04 35.56 35.55 39.49 49.33 43.61 42.47 46.43 43.28 43.91 42.92 41.42 42.22 40.20 41.33 40.77 35.53 40.59 43.99 46.08 46.70 46.65 48.14 50.00 50.34 53.58 56.09 57.42 59.19 61.80 60.11 62.68 64.43
51.08 51.34 51.39 50.14 47.20 43.94 46.44 51.11 50.22 49.23 44.45 37.47 37.35 34.83 36.28 47.38 45.53 46.13 45.20 45.69 39.71 44.34 39.55 39.74 40.93 38.01 35.02 39.08 40.89 42.81 45.09 45.46 45.07 48.36 50.99 52.22 51.74 54.47 56.39 57.36 59.56 59.55 60.29 62.54
51.06 49.83 44.98 42.32 46.20 51.48 50.06 45.43 40.79 40.71 41.25 39.85 34.58 39.60 35.98 42.17 43.56 42.92 42.47 43.31 38.60 35.60 38.96 42.38 38.05 36.70 41.68 43.20 44.24 44.37 46.09 46.45 46.77 45.57 48.20 51.45 52.08 53.86 54.43 55.99 59.34 60.64 60.88 62.46
48.32 46.15 43.84 47.27 51.06 46.80 42.81 37.72 35.25 35.10 32.94 35.43 36.64 37.13 35.06 41.95 37.55 39.90 44.40 39.98 40.87 35.26 38.48 37.52 36.22 35.44 40.40 44.21 44.38 45.49 46.48 46.66 47.67 48.61 51.94 53.24 53.85 53.69 55.07 58.26 60.24 60.91 62.90 61.53
48.40 47.25 49.29 48.29 44.39 41.48 37.32 34.39 34.54 32.79 32.94 35.91 35.56 37.76 40.21 41.97 45.19 41.61 41.78 38.07 38.97 34.31 43.10 38.64 35.65 40.94 45.32 47.22 47.56 46.42 46.42 48.24 48.73 50.40 51.72 54.56 56.52 56.68 57.47 59.25 60.72 61.57 63.62 62.43
50.41 46.87 44.26 42.91 41.90 34.96 32.26 31.89 31.89 31.52 33.48 34.29 36.70 38.03 40.48 39.44 41.36 40.64 38.87 34.22 34.93 39.35 36.48 35.56 39.15 42.68 43.79 44.25 47.60 51.16 49.07 48.46 49.50 50.46 55.67 57.12 57.46 58.54 60.31 60.67 60.79 61.32 61.04 61.42
47.02 45.31 38.21 41.20 40.50 40.71 40.28 40.18 43.40 45.61 39.66 36.95 40.25 39.89 40.02 41.31 38.97 39.21 32.26 35.88 33.99 32.08 31.68 32.79 38.97 41.09 43.79 45.64 49.61 50.67 52.04 54.27 54.09 55.62 56.66 56.84 59.28 60.50 61.30 60.65 61.47 62.04 61.77 62.32
47.63 46.35 38.50 41.91 46.34 48.26 49.50 50.30 49.60 49.31 42.75 41.91 41.08 41.30 41.23 38.39 34.64 34.19 34.01 32.79 32.62 32.79 32.44 33.86 40.31 44.03 48.06 52.29 53.07 53.00 53.69 55.44 56.35 57.68 57.63 58.03 58.94 57.97 58.40 59.46 60.09 60.56 60.74 61.29
49.97 47.43 46.15 49.22 48.37 47.91 48.87 48.83 48.60 50.85 44.24 44.51 46.06 41.40 40.10 38.53 37.72 35.35 33.50 32.59 32.26 35.77 40.86 44.50 46.69 47.05 48.49 50.57 52.29 53.39 54.03 54.59 55.53 56.11 56.76 57.38 57.49 57.43 57.73 58.83 59.35 59.55 59.73 59.47
49.48 47.71 50.90 51.70 50.15 49.35 49.90 50.18 50.33 52.65 48.80 44.74 45.60 41.60 40.48 44.77 40.26 39.62 43.31 41.88 43.09 46.36 46.71 48.31 48.73 48.62 48.86 50.01 51.14 51.20 51.44 51.68 52.54 53.85 55.46 55.89 57.01 57.84 56.89 55.95 57.34 58.62 59.25 59.00